Погода в Поселкек Курорт-Дарасун

Россия / Забайкальский край     51°11′52″N   113°43′19″E
темп.,
°C
ветер,
м/с
пор.,
м/с
влажн.,
%
обл.,
%
осадки,
мм/ч
давл.,
гПа
погр.,
м
16 мая, вс
вс1600:00+7зсз411390 0.0 1011348
03:00+4з412580 0.0 1012306
06:00+4з615455 0.0 1011582
09:00+9зсз813476 0.0 10091042
12:00+15зсз81240100 0.0 10072052
15:00+15зсз7134164 0.0 10062298
18:00+16зсз71540100 0.0 10042569
21:00+12зсз7145418 0.0 10051149
17 мая, пн
пн1700:00+8зсз410685 0.0 1007377
03:00+5зюз28816 0.0 1007178
06:00+4зюз2692100 0.0 1006121
09:00+10зсз4765100 0.0 10031073
12:00+7ссв3491100 1.9 1003401
15:00+6сз41189100 3.8 1003849
18:00+10зсз5106351 0.1 10011439
21:00+8зсз511615 0.1 1002367
18 мая, вт
вт1800:00+5сз512485 0.0 1005468
03:00+2зсз3106621 0.0 1007259
06:00+1з3108134 0.0 1008268
09:00+7зсз610425 0.0 10062003
12:00+10зсз811246 0.0 10052538
15:00+12сз71223100 0.0 10033102
18:00+12зсз8113153 0.0 10032662
21:00+7зсз385176 0.0 1005222
19 мая, ср
ср1900:00+3юз226834 0.0 100613
03:00+3ююз2268100 0.0 100537
06:00+3ююз2266100 0.0 100345
09:00+7в2355100 0.0 1000462
12:00+5юв3590100 3.5 999525
15:00+6ссз1291100 6.9 998253
18:00+7сз478199 0.0 998722
21:00+5сз368576 0.0 1001408
20 мая, чт
чт2000:00+4з118939 0.0 100333
03:00+2зсз119486 0.0 100310
06:00+2ююв2294100 0.0 100325
09:00+7в2375100 0.0 1001339
12:00+11всв5566100 0.0 1000641
15:00+9всв577399 0.2 1001575
18:00+11всв566754 0.0 999741
21:00+6всв478725 0.2 1001290